Regional Weather Roundup
Issued by NWS Little Rock, AR

Home | Current Version | Previous Version | Graphics & Text | Print | Product List | Glossary On
Versions: 1 2 3 4 5 6 7 8 9 10 11 12 13 14 15 16 17 18 19 20 21 22 23 24 25 26 27 28 29 30 31 32 33 34 35 36 37 38 39 40 41 42 43 44 45 46 47 48 49 50
563
ASUS44 KLZK 150005
RWRLZK

WEATHER ROUNDUP FOR ARKANSAS
NATIONAL WEATHER SERVICE LITTLE ROCK AR
600 PM CST THU DEC 14 2017

NOTE: "FAIR" INDICATES FEW OR NO CLOUDS BELOW 12,000 FEET WITH NO
SIGNIFICANT WEATHER AND/OR OBSTRUCTIONS TO VISIBILITY.

ARZ001-003-010-029-150100-
NORTHWEST ARKANSAS

CITY           SKY/WX    TMP DP  RH WIND       PRES   REMARKS
FAYETTEVILLE   CLOUDY    38  25  59 NW6       30.11R
6HR MIN TEMP:  38; 6HR MAX TEMP:  47;

FORT SMITH     CLEAR     44  26  49 NW12      30.13R
6HR MIN TEMP:  44; 6HR MAX TEMP:  53;

HARRISON       CLOUDY    38  23  55 NW6       30.09R
6HR MIN TEMP:  38; 6HR MAX TEMP:  43;

BENTONVILLE    CLOUDY    37  24  59 NW3       30.13R
6HR MIN TEMP:  37; 6HR MAX TEMP:  42; 6HR PCP: TRACE;

ROGERS         CLOUDY    37  24  59 NW5       30.12R
6HR MIN TEMP:  37; 6HR MAX TEMP:  41;

SILOAM SPGS    PTCLDY    35  24  64 N6        30.12R WCI  30
6HR MIN TEMP:  34; 6HR MAX TEMP:  43;

SPRINGDALE     CLOUDY    39  25  56 NW6       30.12R
$$

ARZ004-005-016-150100-
NORTH CENTRAL ARKANSAS

CITY           SKY/WX    TMP DP  RH WIND       PRES   REMARKS
BATESVILLE     CLEAR     38  25  59 NW3       30.10R
6HR MIN TEMP:  38; 6HR MAX TEMP:  48;

FLIPPIN        CLOUDY    40  22  48 NW8       30.11R
6HR MIN TEMP:  39; 6HR MAX TEMP:  44;

MTN HOME       CLOUDY    39  23  52 N5        30.09R
6HR MIN TEMP:  38; 6HR MAX TEMP:  42;

$$

ARZ040-041-150100-
WEST CENTRAL ARKANSAS

CITY           SKY/WX    TMP DP  RH WIND       PRES   REMARKS
MENA           CLEAR     46  30  53 NW6       30.09R
MOUNT IDA      CLEAR     47  29  49 NW5       30.05R
6HR MIN TEMP:  47; 6HR MAX TEMP:  59;

$$

ARZ009-017-025-026-028-150100-
NORTHEAST ARKANSAS

CITY           SKY/WX    TMP DP  RH WIND       PRES   REMARKS
JONESBORO      CLEAR     36  27  69 CALM      30.09R
6HR MIN TEMP:  35; 6HR MAX TEMP:  46;

NEWPORT        CLEAR     36  25  64 NW8       30.10R
6HR MIN TEMP:  36; 6HR MAX TEMP:  47;

WALNUT RIDGE   CLEAR     35  22  58 NW8       30.10R WCI  29
6HR MIN TEMP:  35; 6HR MAX TEMP:  47;

BLYTHEVILLE    CLEAR     35  27  72 NE8       30.09R WCI  29
6HR MIN TEMP:  35; 6HR MAX TEMP:  46;

$$

ARZ022-023-033-042-044-150100-
CENTRAL ARKANSAS

CITY           SKY/WX    TMP DP  RH WIND       PRES   REMARKS
LITTLE ROCK    CLEAR     46  27  47 N12       30.08R
6HR MIN TEMP:  42; 6HR MAX TEMP:  55;

N LITTLE ROCK    N/A     43  28  54 N6        30.11R
6HR MIN TEMP:  43; 6HR MAX TEMP:  52;

JACKSONVILLE   CLEAR     44  26  49 N6        30.08R
6HR MIN TEMP:  44; 6HR MAX TEMP:  54;

SEARCY         CLEAR     42  26  53 N7        30.10R
6HR MIN TEMP:  42; 6HR MAX TEMP:  52;

HOT SPRINGS    CLEAR     50  31  48 N6        30.06R
6HR MIN TEMP:  50; 6HR MAX TEMP:  59;

RUSSELLVILLE   CLEAR     45  25  45 N6        30.09R
6HR MIN TEMP:  45; 6HR MAX TEMP:  53;

CLINTON        FAIR      37  25  60 N5        30.11R
$$

ARZ036-150100-
EAST ARKANSAS

CITY           SKY/WX    TMP DP  RH WIND       PRES   REMARKS
WEST MEMPHIS   CLEAR     38  28  67 N5        30.08R
6HR MIN TEMP:  38; 6HR MAX TEMP:  49;

$$

ARZ050-053-066-070-073-150100-
SOUTHWEST ARKANSAS

CITY           SKY/WX    TMP DP  RH WIND       PRES   REMARKS
ARKADELPHIA    FAIR      50  30  46 N6        30.06R
6HR MIN TEMP:  49; 6HR MAX TEMP:  60;

CAMDEN         CLOUDY    46  32  57 NE3       30.03R
TEXARKANA      CLOUDY    53  26  35 N6        30.04R
6HR MIN TEMP:  50; 6HR MAX TEMP:  61;

EL DORADO      CLOUDY    46  37  71 CALM      30.04R
6HR MIN TEMP:  45; 6HR MAX TEMP:  60;

DE QUEEN       CLEAR     50  28  42 N9        30.07R
6HR MIN TEMP:  50; 6HR MAX TEMP:  62;

$$

ARZ056-057-069-150100-
SOUTHEAST ARKANSAS

CITY           SKY/WX    TMP DP  RH WIND       PRES   REMARKS
PINE BLUFF     CLEAR     46  31  55 NE6       30.06R
6HR MIN TEMP:  45; 6HR MAX TEMP:  54;

STUTTGART      CLEAR     41  30  65 NE10      30.08R
6HR MIN TEMP:  41; 6HR MAX TEMP:  52;

MONTICELLO     CLOUDY    49  32  52 N5        30.05R
6HR MIN TEMP:  49; 6HR MAX TEMP:  58;


$$






USA.gov is the U.S. government's official web portal to all federal, state and local government web resources and services.